Content
SEND FEEDBACK

Daily
Averages
Monthly
Summary
United States of America

CLEBURNE, TEXAS


Home > North America > United States > Texas
Elevation: 781 feet     Latitude: 32 20N     Longitude: 097 24W

WEATHER
 
SELECT A DAY
Number of Records: 232,103;   Date Range: 6/17/04 - 8/12/14
 
SHARE

PRINT THIS DATA

[ ← Previous Day ]
WEATHER ALMANAC - JANUARY 31, 2013
[ Next Day → ]
[ °C ]   °F
Weather ElementAverageHighLow
Temperature49.8 °F68 °F (3:35 pm)32 °F (7:15 am)
Dewpoint24.7 °F32 °F (11:35 pm)21.2 °F (4:15 am)
Humidity43.5 %81 % (7:35 am)17 % (3:35 pm)
Barometer30.18 in30.30 in (11:55 pm)30.12 in (3:55 pm)
Wind Speed8.4 mph18.4 mph (2:35 pm)
Wind Gust27.6 mph (2:35 pm)
Weather ElementAverage
Visibility10 mi
Wind DirectionS (182.9 °)

Weather ElementTotal
Precipitation---
Heating Degree Days15 (Base 65)
Averaged from 70 records on January 31, 2013
WEATHER CONDITIONS BREAKOUT
WIND DIRECTION BREAKOUT
WEATHER BY HOUR - JANUARY 31, 2013
[ °C ]   °F
Local TimeTemperatureDewpointHumidityBarometerVisibilityWind DirectionWind SpeedGust SpeedPrecipitationEventsConditions
12:35 AM35.6 °F28.4 °F75 %30.17 in10.0 miSouth (190°)6.9 mphClear
12:55 AM37.4 °F24.8 °F60 %30.17 in10.0 miSSW (200°)5.8 mphClear
1:15 AM37.4 °F23.0 °F56 %30.17 in10.0 miSouth (190°)5.8 mphClear
1:35 AM37.4 °F23.0 °F56 %30.16 in10.0 miSouth (190°)6.9 mphClear
1:55 AM37.4 °F24.8 °F60 %30.17 in10.0 miSouth (190°)5.8 mphClear
2:15 AM37.4 °F24.8 °F60 %30.17 in10.0 miSouth (180°)6.9 mphClear
2:35 AM35.6 °F26.6 °F70 %30.17 in10.0 miSouth (190°)6.9 mphClear
2:55 AM35.6 °F26.6 °F70 %30.17 in10.0 miSouth (190°)5.8 mphClear
3:15 AM35.6 °F26.6 °F70 %30.17 in10.0 miSouth (190°)6.9 mphClear
3:35 AM33.8 °F26.6 °F75 %30.18 in10.0 miSouth (190°)5.8 mphClear
3:55 AM35.6 °F23.0 °F60 %30.18 in10.0 miSouth (190°)5.8 mphClear
4:15 AM35.6 °F21.2 °F56 %30.16 in10.0 miSSW (200°)5.8 mphClear
4:35 AM35.6 °F21.2 °F56 %30.17 in10.0 miSSW (210°)3.5 mphClear
4:55 AM35.6 °F21.2 °F56 %30.16 in10.0 miSouth (190°)3.5 mphClear
5:15 AM35.6 °F23.0 °F60 %30.16 in10.0 miCalmClear
5:35 AM33.8 °F24.8 °F70 %30.15 in10.0 miSouth (170°)3.5 mphClear
5:55 AM33.8 °F24.8 °F70 %30.16 in10.0 miSouth (180°)3.5 mphClear
6:15 AM33.8 °F24.8 °F70 %30.16 in10.0 miSSW (200°)3.5 mphClear
6:35 AM33.8 °F26.6 °F75 %30.16 in10.0 miSW (230°)3.5 mphClear
6:55 AM33.8 °F26.6 °F75 %30.16 in10.0 miSSW (210°)3.5 mphClear
7:15 AM32.0 °F26.6 °F80 %30.17 in10.0 miSSE (160°)4.6 mphClear
7:35 AM33.8 °F28.4 °F81 %30.18 in10.0 miSouth (170°)9.2 mphClear
7:55 AM33.8 °F28.4 °F81 %30.20 in10.0 miSSE (160°)6.9 mphClear
8:15 AM33.8 °F28.4 °F81 %30.20 in10.0 miSouth (180°)5.8 mphClear
8:35 AM35.6 °F28.4 °F75 %30.20 in10.0 miSouth (190°)5.8 mphClear
8:55 AM37.4 °F28.4 °F70 %30.21 in10.0 miSouth (190°)5.8 mphClear
9:15 AM39.2 °F28.4 °F65 %30.21 in10.0 miSouth (190°)5.8 mphClear
9:35 AM42.8 °F30.2 °F61 %30.21 in10.0 miSouth (190°)8.1 mphClear
9:55 AM46.4 °F26.6 °F46 %30.21 in10.0 miSSW (200°)8.1 mphClear
10:15 AM48.2 °F26.6 °F43 %30.22 in10.0 miSSW (210°)11.5 mphClear
10:35 AM51.8 °F23.0 °F33 %30.23 in10.0 miSW (220°)9.2 mphClear
10:55 AM53.6 °F23.0 °F30 %30.23 in10.0 miSW (220°)11.5 mphClear
11:15 AM55.4 °F23.0 °F29 %30.22 in10.0 miSW (220°)12.7 mph16.1 mphClear
11:35 AM57.2 °F23.0 °F27 %30.22 in10.0 miSSW (210°)13.8 mphClear
11:55 AM59.0 °F23.0 °F25 %30.21 in10.0 miSW (220°)12.7 mph18.4 mphClear
12:15 PM60.8 °F23.0 °F23 %30.20 in10.0 miSSW (200°)12.7 mphClear
12:35 PM60.8 °F21.2 °F22 %30.19 in10.0 miSW (220°)16.1 mphClear
12:55 PM62.6 °F23.0 °F22 %30.19 in10.0 miSW (220°)11.5 mphClear
1:15 PM64.4 °F21.2 °F19 %30.17 in10.0 miSW (230°)15.0 mphClear
1:35 PM64.4 °F21.2 °F19 %30.15 in10.0 miSW (220°)15.0 mph20.7 mphClear
1:55 PM64.4 °F21.2 °F19 %30.15 in10.0 miSW (220°)12.7 mph20.7 mphClear
2:15 PM66.2 °F23.0 °F19 %30.14 in10.0 miSW (220°)17.3 mph20.7 mphClear
2:35 PM66.2 °F23.0 °F19 %30.14 in9.0 miSW (230°)18.4 mph27.6 mphClear
2:55 PM66.2 °F23.0 °F19 %30.13 in10.0 miSW (230°)13.8 mph21.9 mphClear
3:15 PM66.2 °F23.0 °F19 %30.13 in10.0 miWSW (240°)15.0 mph20.7 mphClear
3:35 PM68.0 °F21.2 °F17 %30.13 in10.0 miWSW (240°)15.0 mphClear
3:55 PM68.0 °F23.0 °F18 %30.12 in10.0 miWSW (250°)13.8 mph21.9 mphClear
4:15 PM66.2 °F21.2 °F18 %30.12 in10.0 miSW (230°)11.5 mph21.9 mphClear
4:35 PM68.0 °F21.2 °F17 %30.12 in10.0 miSW (230°)12.7 mph21.9 mphClear
4:55 PM66.2 °F21.2 °F18 %30.12 in10.0 miSW (230°)10.4 mph21.9 mphClear
5:15 PM66.2 °F21.2 °F18 %30.14 in10.0 miSW (230°)11.5 mphClear
5:35 PM66.2 °F23.0 °F19 %30.14 in10.0 miWSW (250°)11.5 mphClear
5:55 PM62.6 °F23.0 °F22 %30.16 in10.0 miWest (260°)6.9 mphClear
6:15 PM60.8 °F23.0 °F23 %30.16 in10.0 miWSW (250°)4.6 mphClear
6:35 PM60.8 °F24.8 °F25 %30.16 in10.0 miWSW (240°)3.5 mphClear
6:55 PM59.0 °F23.0 °F25 %30.17 in10.0 miCalmClear
7:15 PM60.8 °F23.0 °F23 %30.18 in10.0 miNorthClear
7:35 PM59.0 °F23.0 °F25 %30.18 in10.0 miCalmClear
7:55 PM57.2 °F24.8 °F29 %30.20 in10.0 miCalmClear
8:15 PM53.6 °F26.6 °F35 %30.21 in10.0 miNNW (330°)3.5 mphClear
8:35 PM55.4 °F24.8 °F31 %30.23 in10.0 miNNW (330°)3.5 mphClear
8:55 PM57.2 °F23.0 °F27 %30.23 in10.0 miNNW (340°)3.5 mphClear
9:15 PM57.2 °F23.0 °F27 %30.23 in10.0 miNorth (360°)4.6 mphClear
9:35 PM53.6 °F26.6 °F35 %30.24 in10.0 miNNE (30°)5.8 mphClear
9:55 PM53.6 °F26.6 °F35 %30.25 in10.0 miNNE (30°)5.8 mphClear
10:15 PM53.6 °F28.4 °F38 %30.26 in10.0 miNNE (20°)10.4 mphClear
10:35 PM53.6 °F28.4 °F38 %30.27 in10.0 miNNE (20°)10.4 mphClear
11:15 PM51.8 °F30.2 °F44 %30.28 in10.0 miNNE (30°)18.4 mph21.9 mphClear
11:35 PM48.2 °F32.0 °F54 %30.29 in10.0 miNNE (30°)18.4 mphClear
11:55 PM46.4 °F32.0 °F57 %30.30 in10.0 miNNE (30°)16.1 mphClear
Hourly data recorded from KCPT, located miles away from Cleburne, Texas







STORIES FROM OUR PARTNERS